Regional Weather Roundup
Issued by NWS

Home | Current Version | Previous Version | Text Only | Print | Product List | Glossary Off
Versions: 1 2 3 4 5 6 7 8 9 10 11 12 13 14 15 16 17 18 19 20 21 22 23 24 25 26 27 28 29 30 31 32 33 34 35 36 37 38 39 40 41 42 43 44 45 46 47 48 49 50

000
ASUS43 KLMK 311510
RWRKY
KENTUCKY REGIONAL WEATHER ROUNDUP
NATIONAL WEATHER SERVICE LOUISVILLE KY
1100 AM EDT MON AUG 31 2015

NOTE "FAIR" INDICATES FEW OR NO CLOUDS BELOW 12,000 FEET
WITH NO SIGNIFICANT WEATHER AND/OR OBSTRUCTIONS TO VISIBILITY.

KYZ001>023-026-027-061>063-070>075-311600-
WESTERN AND SOUTH CENTRAL KENTUCKY

CITY           SKY/WX    TMP DP  RH WIND       PRES   REMARKS
PADUCAH        SUNNY     78  67  68 VRB5      30.13R
HENDERSON      SUNNY     79  68  69 SW8       30.12S
OWENSBORO      SUNNY     80  68  67 SW10      30.15S
HOPKINSVILLE   SUNNY     76  68  74 W3        30.15R
BOWLING GREEN  SUNNY     78  66  66 VRB3      30.16S
GLASGOW        SUNNY     77  66  68 CALM      30.16F
$$

KYZ024-025-028>034-038-045-046-053-311600-
NORTH CENTRAL KENTUCKY

CITY           SKY/WX    TMP DP  RH WIND       PRES   REMARKS
LOUISVILLE/SDF MOSUNNY   80  66  62 SW6       30.15S
LOUISVILLE/LOU SUNNY     80  66  62 W7        30.16S
FORT KNOX      SUNNY     79  63  57 SW8       30.15R
$$

KYZ035>037-039>044-047>052-055>060-089>105-311600-
NORTHEAST KENTUCKY

CITY           SKY/WX    TMP DP  RH WIND       PRES   REMARKS
LEXINGTON      SUNNY     79  62  56 W8        30.18R
COVINGTON      MOSUNNY   79  68  69 W8        30.16R
FRANKFORT      SUNNY     78  64  61 VRB5      30.17R
$$

KYZ054-064>069-076>088-106>120-311600-
SOUTHEAST KENTUCKY

CITY           SKY/WX    TMP DP  RH WIND       PRES   REMARKS
JACKSON        SUNNY     76  64  66 CALM      30.19S
LONDON         SUNNY     79  63  57 VRB6      30.18S
SOMERSET       MOSUNNY   72  70  94 NE3       30.19R
MIDDLESBORO    SUNNY     74  64  70 CALM      30.19R
MONTICELLO     SUNNY     80  67  64 VRB3      30.20S
$$



USA.gov is the U.S. government's official web portal to all federal, state and local government web resources and services.